This demonstration page uses our WeatherBlox Daily Observations layout. Learn more.

Left ArrowRight Arrow

39.92423, -83.80882

Hourly Observations for June 12, 2018

Temp ( °F °C ) Dew Point ( °F °C ) Humidity (%) Winds ( mph kmh ) Pressure ( in mb ) Visibility ( mi km ) Precip ( " mm )
12:56 am 00:56 Clear 66 18.9 65 18.3 96 96 ESE 8 13 29.99 1016 7 11.26538 N/A
1:56 am 01:56 Clear 67 19.4 65 18.3 93 93 ESE 10 17 29.99 1016 9 14.48406 N/A
2:56 am 02:56 Clear 66 18.9 65 18.3 96 96 ESE 7 11 29.99 1016 8 12.87472 N/A
4:56 am 04:56 Mostly Clear with Mist and Fog 66 18.9 65 18.3 96 96 SE 8 13 29.98 1015 5 8.0467 N/A
5:56 am 05:56 Mostly Clear with Mist and Fog 66 18.9 66 18.9 100 100 ESE 8 13 29.97 1015 4 6.43736 N/A
6:08 am 06:08 Partly Cloudy with Light Rain 66 19 66 19 100 100 ESE 10 17 29.94 1014 2 3.21868 N/A
6:15 am 06:15 Partly Cloudy with Light Rain 66 19 66 19 100 100 ESE 12 19 29.94 1014 1.5 2.41401 N/A
6:56 am 06:56 Partly Cloudy with Mist and Fog 66 18.9 66 18.9 100 100 E 13 20 29.94 1014 1.75 2.816345 N/A
7:03 am 07:03 Partly Cloudy with Mist and Fog 66 19 66 19 100 100 ESE 13 20 29.91 1013 2.5 4.02335 N/A
7:14 am 07:14 Partly Cloudy with Mist and Fog 66 19 66 19 100 100 SE 10 17 29.94 1014 3 4.82802 N/A
7:56 am 07:56 Partly Cloudy with Mist and Fog 68 20 67 19.4 96 96 S 5 7 29.98 1015 5 8.0467 N/A
8:56 am 08:56 Sunny 69 20.6 68 20 96 96 SSE 8 13 29.99 1016 7 11.26538 N/A
9:56 am 09:56 Sunny 72 22.2 68 20 87 87 SE 8 13 30 1016 10 16.0934 N/A
10:56 am 10:56 Partly Cloudy with Light Rain 70 21.1 69 20.6 97 97 SSE 6 9 30 1016 8 12.87472 0.03 0.762
11:56 am 11:56 Partly Cloudy with Rain 71 21.7 69 20.6 94 94 undefined N/A 30 1016 6 9.65604 0.01 0.254
12:56 pm 12:56 Sunny 72 22.2 70 21.1 94 94 SSW 6 9 29.99 1016 10 16.0934 0.08 2.032
2:56 pm 14:56 Sunny 77 25 71 21.7 82 82 SSW 8 13 29.96 1015 10 16.0934 N/A
3:56 pm 15:56 Sunny 78 25.6 70 21.1 76 76 SSW 7 11 29.94 1014 10 16.0934 N/A
4:56 pm 16:56 Sunny 77 25 69 20.6 77 77 SSW 5 7 29.93 1014 10 16.0934 N/A
5:56 pm 17:56 Sunny 78 25.6 68 20 71 71 SSW 9 15 29.91 1013 10 16.0934 N/A
6:56 pm 18:56 Sunny 76 24.4 68 20 77 77 SSW 6 9 29.92 1013 10 16.0934 N/A
7:56 pm 19:56 Sunny 72 22.2 68 20 87 87 undefined N/A 29.92 1013 10 16.0934 N/A
8:56 pm 20:56 Sunny 71 21.7 68 20 90 90 SSW 7 11 29.92 1013 10 16.0934 N/A
9:56 pm 21:56 Clear 70 21.1 67 19.4 90 90 SSW 5 7 29.92 1013 10 16.0934 N/A
10:56 pm 22:56 Clear 70 21.1 68 20 93 93 S 3 6 29.93 1014 10 16.0934 N/A
11:56 pm 23:56 Clear 70 21.1 68 20 93 93 N N/A 29.94 1014 10 16.0934 N/A

Powered by AerisWeather